TimeCDT,TemperatureF,Dew PointF,Humidity,Sea Level PressureIn,VisibilityMPH,Wind Direction,Wind SpeedMPH,Gust SpeedMPH,PrecipitationIn,Events,Conditions,WindDirDegrees,DateUTC
12:53 AM,27.0,18.0,69,30.43,10.0,Calm,Calm,-,N/A,,Clear,0,2013-03-14 05:53:00
1:53 AM,27.0,19.0,72,30.42,10.0,Calm,Calm,-,N/A,,Clear,0,2013-03-14 06:53:00
2:53 AM,25.0,17.1,72,30.42,10.0,Calm,Calm,-,N/A,,Clear,0,2013-03-14 07:53:00
3:53 AM,26.1,19.0,75,30.43,10.0,Calm,Calm,-,N/A,,Clear,0,2013-03-14 08:53:00
4:53 AM,24.1,18.0,77,30.43,10.0,Calm,Calm,-,N/A,,Clear,0,2013-03-14 09:53:00
5:53 AM,24.1,17.1,75,30.44,10.0,Calm,Calm,-,N/A,,Clear,0,2013-03-14 10:53:00
6:53 AM,24.1,18.0,77,30.44,10.0,Calm,Calm,-,N/A,,Clear,0,2013-03-14 11:53:00
7:53 AM,26.1,21.0,81,30.44,10.0,Calm,Calm,-,N/A,,Clear,0,2013-03-14 12:53:00
8:53 AM,30.9,23.0,72,30.44,10.0,SSW,4.6,-,N/A,,Clear,200,2013-03-14 13:53:00
9:53 AM,36.0,23.0,59,30.44,10.0,SSW,4.6,-,N/A,,Clear,200,2013-03-14 14:53:00
10:53 AM,39.0,19.0,45,30.41,10.0,South,3.5,-,N/A,,Clear,170,2013-03-14 15:53:00
11:53 AM,41.0,19.9,43,30.40,10.0,Calm,Calm,-,N/A,,Clear,0,2013-03-14 16:53:00
12:53 PM,43.0,19.0,38,30.39,10.0,Calm,Calm,-,N/A,,Scattered Clouds,0,2013-03-14 17:53:00
1:53 PM,44.1,19.0,37,30.37,10.0,West,6.9,-,N/A,,Overcast,270,2013-03-14 18:53:00
2:53 PM,44.1,19.9,38,30.33,10.0,SW,4.6,-,N/A,,Mostly Cloudy,220,2013-03-14 19:53:00
3:53 PM,45.0,19.0,36,30.32,10.0,SW,9.2,-,N/A,,Overcast,220,2013-03-14 20:53:00
4:53 PM,45.0,19.9,37,30.29,10.0,SW,6.9,-,N/A,,Overcast,230,2013-03-14 21:53:00
5:53 PM,39.0,30.9,73,30.30,8.0,WSW,10.4,-,0.00,Rain,Light Rain,240,2013-03-14 22:53:00
6:53 PM,37.9,34.0,86,30.29,10.0,SSE,6.9,-,0.01,Rain,Light Rain,150,2013-03-14 23:53:00
7:53 PM,37.9,34.0,86,30.29,10.0,ESE,4.6,-,0.00,,Overcast,110,2013-03-15 00:53:00
8:53 PM,37.9,34.0,86,30.28,10.0,SE,5.8,-,N/A,,Overcast,130,2013-03-15 01:53:00
9:53 PM,36.0,33.1,89,30.27,10.0,ESE,3.5,-,N/A,,Partly Cloudy,110,2013-03-15 02:53:00
10:53 PM,36.0,32.0,86,30.25,10.0,Calm,Calm,-,N/A,,Clear,0,2013-03-15 03:53:00
11:53 PM,36.0,32.0,86,30.22,10.0,SSE,4.6,-,N/A,,Clear,160,2013-03-15 04:53:00